[[{"header":{"parameterUnit":"m.s-1","parameterCategory":1,"la1":30.2991,"la2":30.254,"lo1":-89.0895,"lo2":-89.0444,"dy":0.0017,"dx":0.0017,"nx":28,"ny":28,"refTime":"2024-11-23T09:00:00:Z","depth":0,"parameterNumber":2,"parameterNumberName":"U-component_of_WINDS"},"data":[0,0,0,0,0,0,0,0,0,0,0,0,0,0,0,0,0,0,0,0,0,0,0,0,0,0,0,0,0,0,0,0,0,0,0,0,0,0,0,0,0,0,0,0,0,0,0,0,0,0,0,0,0,0,0,0,0,0,-0.0153,-0.0154,0,-0.0209,-0.021,-0.021,-0.0212,-0.0211,-0.021,-0.021,-0.0269,-0.0272,-0.0274,0,0,0,0,0,0,0,0,0,0,0,0,0,-0.005,-0.0051,-0.0153,-0.0154,-0.0155,-0.0209,-0.021,-0.021,-0.0212,-0.0211,-0.021,-0.0209,-0.0269,-0.0271,-0.0274,0,0,0,0,0,0,0,0,0,0,0,0,0,-0.0099,-0.0052,-0.0153,-0.0162,-0.0163,-0.0209,-0.021,-0.0211,-0.0212,-0.0211,-0.021,-0.0209,-0.0268,-0.0271,-0.0274,-0.0316,0,0,-0.0285,-0.0286,0,0,0,0,0,0,0,0,-0.0096,-0.0103,-0.016,-0.0161,-0.0163,-0.0202,-0.0195,-0.0246,-0.0212,-0.0193,-0.021,-0.0208,-0.0248,-0.0253,-0.0266,-0.0319,-0.0321,-0.0285,-0.0287,-0.0289,-0.0289,0,0,0,0,0,0,0,-0.0093,-0.01,-0.0175,-0.0161,-0.0162,-0.0163,-0.0169,-0.0205,-0.0226,-0.0195,-0.0195,-0.0202,-0.0249,-0.0263,-0.0267,-0.0322,-0.0285,-0.0288,-0.029,-0.0291,-0.0411,-0.0412,0,0,0,0,0,0,-0.0087,-0.0097,-0.0174,-0.0177,-0.0126,-0.0166,-0.0173,-0.0191,-0.0226,-0.023,-0.0202,-0.0201,-0.0257,-0.0263,-0.0269,-0.032,-0.0288,-0.0292,-0.0294,-0.041,-0.0411,-0.0413,0,0,0,0,0,0,-0.0085,-0.0094,-0.0171,-0.0137,-0.0147,-0.0169,-0.0189,-0.0192,-0.0206,-0.0231,-0.0235,-0.0213,-0.0257,-0.0265,-0.0304,-0.0322,-0.0293,-0.0296,-0.0409,-0.041,-0.0412,-0.0422,0,0,0,0,0,0,-0.0082,-0.0093,-0.0109,-0.0138,-0.0149,-0.0205,-0.019,-0.0194,-0.0212,-0.0211,-0.0242,-0.0246,-0.0257,-0.0299,-0.0307,-0.0327,-0.0299,-0.0407,-0.0409,-0.0412,-0.0421,-0.0424,-0.0428,0,0,0,0,0,-0.0078,-0.0111,-0.011,-0.0119,-0.0169,-0.0206,-0.0212,-0.0223,-0.0213,-0.0229,-0.0245,-0.0245,-0.0318,-0.0303,-0.0312,-0.0333,-0.0406,-0.0409,-0.0411,-0.0419,-0.0424,-0.0427,0,0,0,0,0,0,-0.0085,-0.0115,-0.0114,-0.0157,-0.0178,-0.0206,-0.0227,-0.0228,-0.0254,-0.0252,-0.0265,-0.0272,-0.0311,-0.0326,-0.0308,-0.0374,-0.0361,-0.0366,-0.0364,-0.0368,-0.0372,-0.0368,-0.0302,0,0,0,0,0,-0.0091,-0.0118,-0.0143,-0.0178,-0.0188,-0.0206,-0.0222,-0.0228,-0.0252,-0.0262,-0.028,-0.0304,-0.0332,-0.0351,-0.0378,-0.0422,-0.0429,-0.044,-0.0444,-0.0447,-0.0451,-0.0475,-0.048,-0.0421,-0.0421,-0.0421,0,0,-0.0105,-0.0125,-0.0141,-0.0179,-0.0197,-0.0225,-0.0214,-0.0244,-0.0265,-0.0266,-0.0305,-0.0319,-0.0346,-0.0387,-0.0407,-0.0401,-0.0468,-0.045,-0.0452,-0.0455,-0.0478,-0.0483,-0.0488,-0.0423,-0.0423,-0.0423,0,0,-0.0145,-0.0162,-0.0193,-0.021,-0.0236,-0.0247,-0.0254,-0.0281,-0.029,-0.0328,-0.033,-0.0355,-0.0403,-0.0423,-0.0439,-0.0482,-0.0483,-0.0491,-0.051,-0.0533,-0.0537,-0.0542,-0.0558,-0.0563,-0.0495,-0.0495,-0.0495,0,-0.0159,-0.0201,-0.0209,-0.0239,-0.0255,-0.0256,-0.0287,-0.0304,-0.0339,-0.035,-0.0343,-0.0403,-0.0421,-0.0467,-0.0477,-0.049,-0.0499,-0.0489,-0.0536,-0.054,-0.0544,-0.056,-0.0566,-0.0496,-0.0496,-0.0495,-0.0495,0,-0.0217,-0.0245,-0.0267,-0.0299,-0.0318,-0.0348,-0.0361,-0.038,-0.0383,-0.0395,-0.0433,-0.0454,-0.0486,-0.0497,-0.0501,-0.0543,-0.0538,-0.0533,-0.052,-0.055,-0.0565,-0.0571,-0.0497,-0.0497,-0.0496,-0.0496,0,0,-0.0265,-0.0299,-0.0307,-0.0321,-0.0349,-0.0371,-0.0401,-0.043,-0.0446,-0.0469,-0.0495,-0.0534,-0.0529,-0.0547,-0.0553,-0.0573,-0.0607,-0.0566,-0.0566,-0.0573,-0.0654,-0.0658,-0.0665,-0.0606,-0.0607,-0.0608,-0.0652,0,-0.0308,-0.0361,-0.0368,-0.0415,-0.0442,-0.0441,-0.0467,-0.0487,-0.0498,-0.0522,-0.0535,-0.0563,-0.0554,-0.0564,-0.0584,-0.0598,-0.0623,-0.0595,-0.0631,-0.0633,-0.0626,-0.0673,-0.0679,-0.0719,-0.0657,-0.0658,-0.0659,0,-0.0367,-0.039,-0.0439,-0.0462,-0.0473,-0.0496,-0.0523,-0.0546,-0.0568,-0.0575,-0.0593,-0.0597,-0.0628,-0.0612,-0.0655,-0.0636,-0.065,-0.0659,-0.0661,-0.0667,-0.0649,-0.068,-0.0732,-0.0738,-0.0668,-0.0668,-0.0667,0,-0.0398,-0.0441,-0.0476,-0.0487,-0.0515,-0.0531,-0.0544,-0.0564,-0.0581,-0.0604,-0.0615,-0.0642,-0.0658,-0.0678,-0.0689,-0.0676,-0.0731,-0.0716,-0.0738,-0.0738,-0.0751,-0.0751,-0.0807,-0.0758,-0.0758,-0.0758,-0.0758,0,-0.0446,-0.0477,-0.049,-0.0512,-0.0545,-0.0553,-0.0586,-0.0598,-0.0616,-0.064,-0.0641,-0.0664,-0.0675,-0.0699,-0.0707,-0.0742,-0.0748,-0.0755,-0.0757,-0.0756,-0.0755,-0.0767,-0.0765,-0.076,-0.0759,-0.0759,-0.0759,0,-0.0488,-0.0498,-0.0536,-0.0558,-0.0564,-0.0588,-0.0607,-0.0628,-0.0637,-0.0667,-0.0675,-0.069,-0.0719,-0.073,-0.0765,-0.0771,-0.081,-0.081,-0.0803,-0.0804,-0.0825,-0.0824,-0.0892,-0.0902,-0.0846,-0.0847,-0.0847,0,-0.0519,-0.0542,-0.0566,-0.0581,-0.0594,-0.0619,-0.0635,-0.0643,-0.066,-0.0686,-0.0704,-0.0731,-0.0755,-0.08,-0.0815,-0.0841,-0.0842,-0.0864,-0.0846,-0.0844,-0.0843,-0.0842,-0.0845,-0.0868,-0.0868,-0.0869,-0.0869,0,-0.0574,-0.0577,-0.06,-0.0625,-0.0644,-0.0664,-0.0683,-0.0696,-0.0707,-0.0726,-0.0754,-0.0772,-0.0806,-0.0834,-0.0861,-0.0874,-0.0874,-0.0874,-0.0881,-0.0881,-0.0876,-0.088,-0.0813,-0.0873,-0.0873,-0.0873,-0.0872,-0.0872,-0.0612,-0.0632,-0.0651,-0.0677,-0.0692,-0.0709,-0.073,-0.0741,-0.0764,-0.0793,-0.0795,-0.0826,-0.0846,-0.0881,-0.0895,-0.0919,-0.0914,-0.0923,-0.0926,-0.0928,-0.093,-0.087,-0.0924,-0.0924,-0.0924,-0.0924,-0.0924,0,-0.0667,-0.0679,-0.0702,-0.0728,-0.0748,-0.0744,-0.0765,-0.0782,-0.0808,-0.0827,-0.0848,-0.088,-0.0907,-0.0922,-0.0948,-0.0965,-0.0965,-0.0971,-0.0971,-0.0974,-0.0933,-0.0925,-0.0971,-0.0971,-0.0971,-0.0971,-0.0971,-0.0971,-0.0699,-0.0732,-0.0737,-0.0778,-0.079,-0.0819,-0.0831,-0.0847,-0.0861,-0.0897,-0.0918,-0.0927,-0.0944,-0.0971,-0.0995,-0.0999,-0.1009,-0.1016,-0.102,-0.0982,-0.0977,-0.0973,-0.0965,-0.1018,-0.1018,-0.1059,-0.1059,-0.106]},{"header":{"parameterUnit":"m.s-1","parameterCategory":1,"la1":30.2991,"la2":30.254,"lo1":-89.0895,"lo2":-89.0444,"dy":0.0017,"dx":0.0017,"nx":28,"ny":28,"refTime":"2024-11-23T09:00:00:Z","depth":0,"parameterNumber":3,"parameterNumberName":"V-component_of_WINDS"},"data":[0,0,0,0,0,0,0,0,0,0,0,0,0,0,0,0,0,0,0,0,0,0,0,0,0,0,0,0,0,0,0,0,0,0,0,0,0,0,0,0,0,0,0,0,0,0,0,0,0,0,0,0,0,0,0,0,0,0,-4.7689,-4.7691,0,-4.7829,-4.783,-4.7832,-4.7762,-4.7758,-4.7755,-4.7751,-4.7889,-4.7896,-4.7903,0,0,0,0,0,0,0,0,0,0,0,0,0,-4.7357,-4.7363,-4.7689,-4.7691,-4.7693,-4.7829,-4.783,-4.7832,-4.7762,-4.7758,-4.7754,-4.7749,-4.7887,-4.7895,-4.7904,0,0,0,0,0,0,0,0,0,0,0,0,0,-4.7499,-4.7365,-4.7689,-4.7674,-4.7674,-4.7828,-4.7831,-4.7833,-4.7763,-4.7758,-4.7752,-4.7747,-4.7884,-4.7895,-4.7905,-4.808,0,0,-4.7937,-4.7942,0,0,0,0,0,0,0,0,-4.7491,-4.7511,-4.7674,-4.7675,-4.7676,-4.7772,-4.7764,-4.7916,-4.7765,-4.7729,-4.7751,-4.7745,-4.7855,-4.7867,-4.7905,-4.8086,-4.8092,-4.7938,-4.7945,-4.7949,-4.7952,0,0,0,0,0,0,0,-4.7481,-4.7505,-4.7744,-4.7677,-4.7678,-4.7659,-4.7673,-4.7792,-4.7821,-4.7732,-4.7727,-4.7745,-4.7854,-4.7895,-4.7908,-4.8094,-4.7938,-4.7948,-4.7954,-4.7958,-4.8425,-4.843,0,0,0,0,0,0,-4.7473,-4.7497,-4.774,-4.7748,-4.7568,-4.7669,-4.7685,-4.7747,-4.7819,-4.7825,-4.775,-4.7741,-4.788,-4.7896,-4.7913,-4.8122,-4.7949,-4.7959,-4.7965,-4.8419,-4.8426,-4.8432,0,0,0,0,0,0,-4.7466,-4.7495,-4.7734,-4.7622,-4.7651,-4.7681,-4.7751,-4.7752,-4.7794,-4.7833,-4.7837,-4.7787,-4.7876,-4.7898,-4.8039,-4.8125,-4.7964,-4.7974,-4.8412,-4.8421,-4.8429,-4.8542,0,0,0,0,0,0,-4.7457,-4.7493,-4.7561,-4.7624,-4.7657,-4.786,-4.7756,-4.7759,-4.7813,-4.7803,-4.7869,-4.7874,-4.7873,-4.8024,-4.805,-4.8137,-4.7982,-4.8404,-4.8416,-4.8426,-4.853,-4.8553,-4.8573,0,0,0,0,0,-4.7445,-4.7586,-4.7565,-4.7595,-4.7743,-4.7865,-4.7884,-4.7881,-4.782,-4.7888,-4.7913,-4.7872,-4.8112,-4.8039,-4.8067,-4.8159,-4.8398,-4.8412,-4.8426,-4.8521,-4.8549,-4.8573,0,0,0,0,0,0,-4.7531,-4.7594,-4.7571,-4.7737,-4.7797,-4.7853,-4.7939,-4.7911,-4.7988,-4.7976,-4.7968,-4.7983,-4.813,-4.8158,-4.8076,-4.8332,-4.8245,-4.8265,-4.8308,-4.8335,-4.8356,-4.8346,-4.7991,0,0,0,0,0,-4.757,-4.7666,-4.7715,-4.7856,-4.7888,-4.7908,-4.7962,-4.7955,-4.8015,-4.8039,-4.8074,-4.8133,-4.8221,-4.828,-4.8363,-4.8534,-4.8547,-4.8611,-4.8633,-4.865,-4.8667,-4.8759,-4.8788,-4.8477,-4.8477,-4.8477,0,0,-4.765,-4.7697,-4.7757,-4.7875,-4.792,-4.8018,-4.793,-4.8037,-4.8109,-4.8055,-4.8191,-4.8219,-4.8284,-4.8441,-4.8511,-4.8469,-4.8756,-4.8667,-4.8681,-4.8689,-4.8776,-4.8805,-4.8832,-4.8486,-4.8485,-4.8483,0,0,-4.7847,-4.7892,-4.8015,-4.8062,-4.8132,-4.8145,-4.8175,-4.8236,-4.8252,-4.8389,-4.835,-4.8435,-4.8587,-4.8635,-4.8679,-4.8894,-4.8859,-4.8921,-4.9033,-4.9122,-4.9147,-4.9168,-4.9244,-4.9272,-4.8938,-4.8938,-4.8939,0,-4.7938,-4.8085,-4.8081,-4.8192,-4.8244,-4.8201,-4.8325,-4.837,-4.8463,-4.85,-4.8451,-4.8642,-4.8682,-4.8849,-4.8902,-4.8939,-4.8972,-4.8914,-4.9144,-4.9166,-4.9186,-4.9258,-4.9287,-4.8945,-4.8945,-4.8944,-4.8943,0,-4.8193,-4.8296,-4.8386,-4.8479,-4.8541,-4.8658,-4.867,-4.8733,-4.8721,-4.8738,-4.8877,-4.8924,-4.9016,-4.9055,-4.9043,-4.9221,-4.9192,-4.9145,-4.9057,-4.9223,-4.929,-4.9318,-4.8955,-4.8953,-4.8951,-4.8949,0,0,-4.8448,-4.8537,-4.8571,-4.8612,-4.8686,-4.8764,-4.8878,-4.897,-4.9024,-4.9089,-4.9184,-4.9314,-4.927,-4.932,-4.9313,-4.9392,-4.9558,-4.9333,-4.9335,-4.9373,-4.9755,-4.9791,-4.9823,-4.9535,-4.954,-4.9544,-4.9749,0,-4.865,-4.8851,-4.885,-4.9035,-4.913,-4.909,-4.9188,-4.9244,-4.9263,-4.9344,-4.9364,-4.9456,-4.9391,-4.9421,-4.9498,-4.9521,-4.9634,-4.9506,-4.9621,-4.9625,-4.9607,-4.9859,-4.9897,-5.0088,-4.9776,-4.978,-4.9784,0,-4.8912,-4.8988,-4.9183,-4.9243,-4.9282,-4.9371,-4.9455,-4.9534,-4.9594,-4.9603,-4.9659,-4.964,-4.9753,-4.9663,-4.9819,-4.9733,-4.9779,-4.9798,-4.9805,-4.9816,-4.9715,-4.9876,-5.0149,-5.0178,-4.9825,-4.9822,-4.9819,0,-4.9078,-4.9229,-4.9365,-4.9401,-4.9475,-4.9538,-4.9571,-4.9627,-4.9682,-4.9754,-4.9789,-4.9874,-4.992,-4.9984,-4.9987,-4.9922,-5.0145,-5.0055,-5.0154,-5.0154,-5.0202,-5.0199,-5.0487,-5.0233,-5.0233,-5.0232,-5.0231,0,-4.9304,-4.9424,-4.9441,-4.9524,-4.9658,-4.9655,-4.9787,-4.9814,-4.9864,-4.9951,-4.992,-5.0002,-5.0002,-5.0084,-5.0087,-5.0216,-5.0236,-5.0245,-5.0245,-5.0248,-5.0247,-5.0279,-5.0265,-5.024,-5.0238,-5.0236,-5.0235,0,-4.9512,-4.9528,-4.9674,-4.9731,-4.9749,-4.9845,-4.9893,-4.9972,-4.9988,-5.0098,-5.0124,-5.0149,-5.0245,-5.0254,-5.0365,-5.0367,-5.0522,-5.0507,-5.0502,-5.05,-5.0598,-5.0589,-5.0916,-5.0959,-5.0677,-5.0679,-5.0682,0,-4.9655,-4.9747,-4.9815,-4.9872,-4.9909,-5.0001,-5.0057,-5.0057,-5.0117,-5.0193,-5.0262,-5.0356,-5.043,-5.0585,-5.0612,-5.0697,-5.0683,-5.0792,-5.0695,-5.0696,-5.0684,-5.0679,-5.0688,-5.0811,-5.0814,-5.0816,-5.0818,0,-4.9907,-4.991,-4.9993,-5.0079,-5.0148,-5.0215,-5.0278,-5.0326,-5.0333,-5.0401,-5.05,-5.0558,-5.0672,-5.0765,-5.0848,-5.0879,-5.0851,-5.0849,-5.0876,-5.0881,-5.0874,-5.0879,-5.0553,-5.0841,-5.0839,-5.0837,-5.0836,-5.0835,-5.0087,-5.0167,-5.0227,-5.032,-5.0368,-5.0428,-5.0505,-5.0531,-5.0614,-5.0708,-5.0702,-5.0811,-5.0868,-5.0977,-5.1015,-5.1098,-5.1062,-5.1101,-5.1111,-5.1121,-5.1131,-5.0861,-5.1113,-5.1113,-5.1112,-5.1112,-5.1111,0,-5.0336,-5.0373,-5.0459,-5.0549,-5.0623,-5.059,-5.0658,-5.0721,-5.0818,-5.0874,-5.0949,-5.1061,-5.1151,-5.1185,-5.1272,-5.1332,-5.1321,-5.1355,-5.1351,-5.1358,-5.1159,-5.1127,-5.1363,-5.1363,-5.1363,-5.1363,-5.1363,-5.1363,-5.0475,-5.0609,-5.0619,-5.0775,-5.0811,-5.0919,-5.096,-5.1014,-5.1059,-5.1188,-5.1263,-5.1284,-5.1332,-5.1422,-5.1502,-5.1509,-5.1543,-5.1583,-5.1584,-5.1398,-5.1372,-5.1348,-5.1318,-5.159,-5.159,-5.1776,-5.1778,-5.1779]}]]